Precipitable_Water
0.49 0.50 0.51 0.50 0.47 0.46 0.48 0.51 0.51 0.50 0.48 0.46 0.45 0.44 0.43 0.43 0.40 0.35 0.32 0.34 0.24 0.20 0.24 0.25 0.22 0.18 0.18 0.17 0.15 0.20 0.18 0.20 0.22 0.17 0.17 0.17 0.16 0.17 0.16 0.18 0.17 0.17 0.17 0.18 0.20 0.18 0.17 0.29 0.29 0.26 0.30 0.35 0.35 0.34
0.47 0.48 0.49 0.49 0.48 0.48 0.49 0.48 0.48 0.48 0.47 0.46 0.45 0.42 0.39 0.39 0.42 0.40 0.31 0.40 0.40 0.28 0.27 0.30 0.27 0.28 0.25 0.21 0.20 0.23 0.22 0.22 0.25 0.22 0.21 0.22 0.19 0.21 0.21 0.17 0.24 0.19 0.23 0.21 0.23 0.22 0.29 0.34 0.35 0.37 0.37 0.34 0.36 0.38
0.43 0.41 0.44 0.45 0.45 0.42 0.41 0.49 0.50 0.47 0.45 0.44 0.44 0.42 0.40 0.44 0.47 0.46 0.42 0.44 0.42 0.32 0.30 0.29 0.28 0.33 0.35 0.30 0.31 0.22 0.25 0.30 0.28 0.34 0.29 0.26 0.20 0.25 0.19 0.22 0.23 0.27 0.30 0.25 0.26 0.30 0.34 0.38 0.41 0.43 0.45 0.44 0.43 0.43
0.42 0.40 0.39 0.40 0.40 0.40 0.42 0.44 0.47 0.50 0.48 0.44 0.44 0.44 0.47 0.49 0.52 0.53 0.47 0.51 0.44 0.36 0.24 0.29 0.41 0.34 0.40 0.38 0.36 0.34 0.35 0.37 0.37 0.35 0.29 0.26 0.23 0.30 0.25 0.26 0.26 0.29 0.31 0.28 0.29 0.34 0.37 0.39 0.40 0.38 0.36 0.39 0.39 0.40
0.44 0.42 0.40 0.37 0.36 0.42 0.43 0.44 0.46 0.44 0.47 0.52 0.53 0.54 0.54 0.55 0.56 0.58 0.58 0.55 0.53 0.37 0.26 0.29 0.37 0.40 0.42 0.42 0.39 0.39 0.36 0.36 0.34 0.28 0.27 0.25 0.31 0.30 0.31 0.30 0.26 0.31 0.31 0.28 0.27 0.39 0.39 0.36 0.37 0.36 0.36 0.37 0.38 0.37
0.45 0.42 0.40 0.38 0.40 0.41 0.39 0.38 0.41 0.49 0.51 0.54 0.57 0.59 0.59 0.60 0.59 0.52 0.38 0.54 0.58 0.52 0.34 0.23 0.38 0.37 0.43 0.42 0.38 0.37 0.39 0.37 0.35 0.31 0.30 0.32 0.36 0.32 0.25 0.23 0.29 0.36 0.40 0.42 0.37 0.44 0.41 0.39 0.37 0.38 0.36 0.39 0.39 0.37
0.47 0.46 0.45 0.43 0.41 0.39 0.39 0.44 0.45 0.45 0.48 0.50 0.54 0.58 0.61 0.62 0.55 0.41 0.38 0.50 0.59 0.55 0.36 0.27 0.28 0.38 0.43 0.40 0.39 0.39 0.41 0.38 0.36 0.33 0.31 0.32 0.33 0.35 0.28 0.22 0.30 0.37 0.40 0.40 0.41 0.43 0.36 0.37 0.32 0.39 0.36 0.37 0.38 0.39
0.50 0.50 0.49 0.48 0.46 0.45 0.44 0.43 0.44 0.43 0.43 0.47 0.50 0.56 0.63 0.65 0.57 0.48 0.56 0.60 0.60 0.47 0.41 0.26 0.25 0.29 0.40 0.33 0.31 0.39 0.33 0.37 0.36 0.34 0.35 0.31 0.34 0.33 0.24 0.29 0.34 0.38 0.37 0.36 0.40 0.43 0.40 0.39 0.39 0.40 0.41 0.40 0.38 0.39
0.50 0.50 0.49 0.50 0.50 0.48 0.45 0.44 0.44 0.42 0.42 0.44 0.49 0.53 0.53 0.53 0.46 0.49 0.60 0.61 0.61 0.46 0.30 0.29 0.22 0.22 0.38 0.36 0.36 0.35 0.37 0.28 0.39 0.30 0.30 0.33 0.28 0.23 0.28 0.31 0.33 0.36 0.33 0.33 0.39 0.40 0.42 0.37 0.36 0.36 0.37 0.38 0.38 0.40
0.50 0.50 0.48 0.47 0.47 0.48 0.47 0.44 0.43 0.41 0.42 0.47 0.47 0.39 0.31 0.43 0.57 0.58 0.50 0.41 0.41 0.42 0.39 0.27 0.31 0.26 0.32 0.33 0.30 0.28 0.33 0.29 0.25 0.29 0.36 0.27 0.25 0.32 0.35 0.36 0.37 0.36 0.34 0.35 0.34 0.36 0.38 0.38 0.37 0.35 0.34 0.35 0.35 0.35
0.51 0.50 0.49 0.48 0.46 0.46 0.46 0.44 0.43 0.41 0.43 0.42 0.35 0.32 0.47 0.58 0.49 0.42 0.35 0.32 0.34 0.29 0.34 0.32 0.30 0.27 0.33 0.27 0.27 0.31 0.28 0.31 0.22 0.28 0.26 0.23 0.23 0.31 0.35 0.35 0.38 0.37 0.34 0.34 0.36 0.39 0.40 0.43 0.42 0.41 0.41 0.39 0.38 0.37
0.50 0.49 0.48 0.46 0.45 0.44 0.44 0.45 0.44 0.40 0.40 0.44 0.43 0.47 0.49 0.40 0.35 0.29 0.28 0.32 0.29 0.25 0.31 0.29 0.31 0.33 0.34 0.36 0.28 0.31 0.26 0.29 0.21 0.33 0.25 0.20 0.29 0.33 0.34 0.35 0.37 0.36 0.34 0.34 0.36 0.37 0.40 0.42 0.45 0.44 0.43 0.42 0.42 0.42
0.47 0.47 0.48 0.48 0.47 0.46 0.45 0.44 0.44 0.43 0.44 0.46 0.40 0.33 0.33 0.31 0.23 0.21 0.18 0.23 0.24 0.29 0.31 0.31 0.28 0.33 0.36 0.37 0.31 0.31 0.25 0.23 0.31 0.24 0.21 0.26 0.32 0.33 0.35 0.36 0.35 0.34 0.34 0.35 0.35 0.36 0.38 0.39 0.42 0.43 0.41 0.42 0.42 0.41
0.45 0.45 0.47 0.46 0.46 0.46 0.46 0.44 0.45 0.44 0.38 0.32 0.29 0.22 0.23 0.23 0.23 0.21 0.21 0.23 0.31 0.33 0.33 0.33 0.32 0.33 0.37 0.33 0.33 0.25 0.28 0.28 0.21 0.18 0.20 0.30 0.31 0.33 0.36 0.36 0.34 0.32 0.31 0.33 0.34 0.35 0.35 0.36 0.37 0.39 0.41 0.41 0.40 0.39
0.41 0.43 0.45 0.45 0.45 0.46 0.46 0.45 0.46 0.45 0.35 0.29 0.30 0.21 0.22 0.26 0.30 0.29 0.30 0.29 0.33 0.37 0.36 0.37 0.37 0.37 0.33 0.30 0.30 0.28 0.23 0.19 0.21 0.21 0.29 0.31 0.33 0.34 0.34 0.34 0.32 0.31 0.29 0.28 0.30 0.32 0.34 0.36 0.36 0.37 0.39 0.40 0.41 0.40
0.41 0.43 0.41 0.44 0.45 0.46 0.46 0.46 0.44 0.44 0.35 0.31 0.29 0.25 0.28 0.27 0.27 0.28 0.30 0.32 0.39 0.41 0.45 0.43 0.34 0.30 0.28 0.28 0.25 0.22 0.21 0.19 0.24 0.29 0.33 0.32 0.32 0.33 0.31 0.29 0.30 0.30 0.27 0.26 0.26 0.26 0.27 0.30 0.32 0.33 0.34 0.35 0.35 0.34
0.40 0.37 0.43 0.43 0.44 0.46 0.49 0.43 0.40 0.33 0.29 0.26 0.23 0.28 0.29 0.31 0.29 0.31 0.32 0.36 0.44 0.42 0.35 0.36 0.27 0.26 0.32 0.26 0.24 0.26 0.23 0.27 0.32 0.33 0.31 0.31 0.32 0.30 0.29 0.28 0.28 0.26 0.24 0.23 0.23 0.23 0.22 0.24 0.24 0.23 0.23 0.24 0.23 0.21
0.34 0.41 0.44 0.45 0.45 0.43 0.42 0.40 0.33 0.29 0.23 0.24 0.22 0.23 0.28 0.31 0.35 0.37 0.38 0.41 0.41 0.40 0.39 0.35 0.36 0.28 0.25 0.22 0.23 0.28 0.32 0.35 0.37 0.35 0.30 0.32 0.32 0.30 0.29 0.28 0.27 0.24 0.21 0.20 0.20 0.20 0.20 0.20 0.19 0.16 0.16 0.16 0.15 0.15
0.34 0.38 0.42 0.43 0.43 0.37 0.32 0.33 0.32 0.24 0.23 0.24 0.26 0.27 0.29 0.29 0.35 0.42 0.42 0.43 0.47 0.48 0.45 0.39 0.31 0.26 0.25 0.30 0.30 0.34 0.36 0.36 0.31 0.30 0.31 0.32 0.31 0.29 0.28 0.28 0.26 0.22 0.19 0.18 0.17 0.17 0.17 0.17 0.16 0.16 0.16 0.16 0.14 0.14
0.36 0.35 0.38 0.41 0.41 0.31 0.27 0.29 0.34 0.23 0.20 0.25 0.27 0.26 0.25 0.25 0.32 0.36 0.39 0.43 0.44 0.43 0.38 0.34 0.31 0.29 0.32 0.36 0.39 0.38 0.39 0.37 0.32 0.26 0.28 0.30 0.30 0.28 0.27 0.26 0.24 0.21 0.19 0.18 0.18 0.17 0.16 0.16 0.16 0.16 0.16 0.15 0.14 0.13
0.33 0.34 0.37 0.39 0.34 0.32 0.28 0.29 0.26 0.25 0.23 0.22 0.29 0.30 0.26 0.27 0.26 0.29 0.32 0.40 0.38 0.35 0.33 0.38 0.38 0.38 0.39 0.38 0.39 0.41 0.41 0.40 0.33 0.28 0.28 0.28 0.30 0.29 0.28 0.29 0.27 0.23 0.20 0.19 0.18 0.18 0.19 0.18 0.17 0.17 0.16 0.16 0.16 0.16
0.32 0.32 0.30 0.33 0.26 0.27 0.26 0.29 0.29 0.32 0.26 0.24 0.21 0.25 0.26 0.27 0.27 0.29 0.34 0.33 0.31 0.33 0.34 0.33 0.34 0.37 0.37 0.33 0.33 0.38 0.43 0.44 0.40 0.33 0.32 0.34 0.28 0.27 0.28 0.29 0.28 0.24 0.22 0.21 0.20 0.20 0.21 0.21 0.20 0.19 0.18 0.16 0.16 0.16
0.36 0.31 0.26 0.28 0.23 0.23 0.21 0.30 0.24 0.28 0.23 0.23 0.25 0.20 0.18 0.20 0.26 0.38 0.31 0.32 0.31 0.34 0.35 0.35 0.34 0.36 0.35 0.35 0.36 0.38 0.42 0.45 0.39 0.35 0.30 0.34 0.33 0.31 0.31 0.31 0.31 0.27 0.23 0.22 0.23 0.23 0.22 0.22 0.22 0.21 0.20 0.17 0.16 0.15
0.35 0.26 0.20 0.19 0.21 0.19 0.24 0.22 0.25 0.23 0.24 0.24 0.26 0.23 0.22 0.23 0.27 0.26 0.23 0.27 0.32 0.33 0.33 0.32 0.33 0.34 0.34 0.33 0.32 0.35 0.41 0.46 0.42 0.38 0.32 0.31 0.32 0.31 0.32 0.31 0.32 0.31 0.29 0.25 0.24 0.23 0.23 0.23 0.23 0.22 0.21 0.18 0.16 0.15
0.19 0.18 0.18 0.15 0.22 0.19 0.18 0.19 0.19 0.19 0.17 0.18 0.20 0.23 0.29 0.34 0.27 0.25 0.23 0.25 0.28 0.30 0.29 0.30 0.32 0.33 0.29 0.29 0.33 0.36 0.41 0.44 0.40 0.35 0.34 0.31 0.33 0.34 0.31 0.31 0.32 0.32 0.31 0.27 0.24 0.23 0.23 0.24 0.24 0.23 0.22 0.20 0.17 0.15
0.14 0.16 0.13 0.14 0.17 0.17 0.15 0.14 0.17 0.18 0.17 0.17 0.17 0.21 0.27 0.26 0.24 0.24 0.26 0.28 0.29 0.29 0.30 0.31 0.31 0.32 0.33 0.34 0.33 0.33 0.37 0.45 0.43 0.35 0.31 0.31 0.32 0.32 0.31 0.28 0.28 0.30 0.33 0.30 0.26 0.24 0.23 0.23 0.24 0.23 0.22 0.21 0.19 0.17
0.13 0.13 0.14 0.17 0.19 0.19 0.17 0.18 0.16 0.15 0.16 0.18 0.20 0.21 0.23 0.20 0.20 0.27 0.36 0.38 0.34 0.36 0.37 0.37 0.37 0.36 0.32 0.33 0.35 0.38 0.41 0.41 0.38 0.35 0.36 0.34 0.35 0.38 0.37 0.32 0.29 0.34 0.37 0.34 0.29 0.26 0.24 0.23 0.24 0.24 0.24 0.23 0.22 0.20
0.17 0.17 0.13 0.15 0.15 0.18 0.17 0.17 0.17 0.16 0.16 0.17 0.17 0.17 0.20 0.22 0.20 0.29 0.33 0.42 0.43 0.43 0.40 0.39 0.39 0.39 0.37 0.37 0.38 0.38 0.37 0.38 0.39 0.39 0.37 0.37 0.38 0.38 0.38 0.39 0.40 0.39 0.39 0.38 0.33 0.29 0.27 0.26 0.25 0.25 0.25 0.25 0.24 0.24
0.15 0.18 0.19 0.17 0.18 0.17 0.16 0.19 0.20 0.20 0.25 0.23 0.19 0.18 0.22 0.29 0.33 0.36 0.40 0.44 0.44 0.42 0.38 0.36 0.37 0.39 0.39 0.40 0.40 0.39 0.39 0.37 0.32 0.27 0.25 0.26 0.28 0.30 0.36 0.38 0.39 0.40 0.40 0.38 0.34 0.32 0.30 0.30 0.29 0.27 0.28 0.28 0.27 0.26
0.12 0.15 0.15 0.16 0.16 0.16 0.17 0.21 0.21 0.27 0.28 0.28 0.29 0.30 0.31 0.32 0.35 0.39 0.38 0.41 0.40 0.39 0.39 0.38 0.37 0.36 0.33 0.33 0.33 0.35 0.39 0.40 0.38 0.32 0.28 0.26 0.28 0.35 0.37 0.37 0.38 0.39 0.39 0.36 0.34 0.34 0.34 0.33 0.32 0.30 0.28 0.28 0.27 0.26
0.15 0.15 0.13 0.13 0.14 0.15 0.19 0.22 0.24 0.25 0.25 0.24 0.25 0.24 0.24 0.28 0.33 0.36 0.36 0.38 0.40 0.40 0.40 0.38 0.36 0.37 0.36 0.34 0.34 0.33 0.32 0.38 0.38 0.38 0.38 0.38 0.38 0.39 0.39 0.39 0.39 0.40 0.39 0.38 0.36 0.35 0.35 0.34 0.33 0.31 0.29 0.28 0.27 0.27
0.13 0.12 0.12 0.11 0.13 0.16 0.18 0.17 0.18 0.18 0.19 0.19 0.21 0.24 0.23 0.24 0.24 0.30 0.35 0.36 0.35 0.36 0.39 0.41 0.40 0.39 0.42 0.43 0.43 0.42 0.41 0.41 0.40 0.40 0.40 0.39 0.41 0.43 0.44 0.43 0.41 0.39 0.37 0.36 0.37 0.37 0.36 0.35 0.34 0.33 0.31 0.30 0.29 0.28
0.13 0.13 0.13 0.13 0.13 0.13 0.14 0.14 0.14 0.13 0.16 0.16 0.17 0.20 0.23 0.23 0.22 0.29 0.37 0.38 0.37 0.37 0.39 0.42 0.43 0.43 0.43 0.43 0.43 0.43 0.43 0.44 0.45 0.45 0.45 0.44 0.44 0.44 0.44 0.43 0.42 0.39 0.37 0.35 0.33 0.33 0.33 0.33 0.33 0.33 0.32 0.32 0.31 0.30
Wind_Speed
10 10 11 13 14 14 16 17 18 18 18 18 17 17 17 17 16 16 17 16 17 17 17 18 18 17 17 17 16 14 14 15 14 15 15 15 16 16 18 19 20 20 19 21 24 26 29 27 33 35 39 42 42 38
9 10 11 12 12 13 15 16 18 18 18 18 18 17 17 17 17 16 17 16 16 17 17 19 20 20 18 17 16 15 14 12 12 13 14 14 16 17 18 18 16 17 18 24 25 28 40 47 49 50 49 49 46 44
11 10 10 10 11 11 13 15 16 17 18 18 18 18 18 18 17 17 17 17 16 17 18 19 20 20 20 19 17 15 15 13 13 14 13 15 16 16 16 17 22 21 23 25 33 33 44 51 52 54 53 51 48 46
14 12 11 11 9 10 10 12 14 15 16 17 18 17 18 18 17 18 17 17 16 16 16 16 16 17 17 19 20 18 13 13 12 13 13 14 15 15 16 20 23 23 26 29 36 42 52 48 51 54 52 47 43 40
17 15 14 13 12 11 11 11 11 12 13 14 15 17 17 17 17 17 18 18 17 16 14 16 17 16 15 18 19 18 17 15 13 13 13 14 15 16 17 18 18 18 25 29 36 46 43 51 56 52 47 41 35 31
20 18 16 15 14 13 12 12 12 12 11 12 14 16 16 17 17 16 16 17 19 17 16 15 15 16 15 17 17 18 17 16 14 12 13 14 16 15 14 16 17 20 27 33 36 42 42 47 51 48 44 35 24 19
23 21 19 18 17 16 14 13 12 12 11 11 11 13 15 16 16 15 15 15 16 17 16 16 16 16 15 14 15 16 16 14 14 13 14 16 16 14 14 16 17 24 29 33 34 38 37 41 46 44 38 29 16 6
26 25 22 20 18 18 17 16 15 13 12 11 11 11 13 15 15 15 15 14 14 14 15 15 15 15 16 15 14 15 14 14 13 14 14 14 13 13 14 15 20 24 28 30 32 32 33 37 38 38 35 29 19 11
27 25 25 24 22 21 20 19 18 16 14 13 12 11 13 14 15 16 16 17 17 17 15 15 15 14 15 14 14 14 14 13 13 14 13 12 12 13 14 17 21 23 25 28 29 28 30 31 33 33 33 30 25 20
26 27 27 26 26 25 24 22 21 19 17 15 13 12 12 14 14 14 14 16 16 17 19 18 17 16 15 15 14 13 13 13 13 13 11 12 14 14 13 16 18 21 23 25 25 25 26 27 27 27 27 26 26 23
29 27 27 27 27 28 27 25 24 22 20 19 17 15 13 12 13 14 14 15 14 15 16 17 21 20 18 16 14 14 13 12 13 11 12 12 13 11 13 16 17 20 22 22 21 21 22 22 22 22 21 21 20 19
29 28 27 26 28 28 28 28 27 25 23 22 19 18 16 15 14 15 15 14 15 14 14 14 16 18 17 17 16 15 14 13 13 11 13 13 11 12 14 16 17 18 19 19 19 18 18 18 17 17 17 17 17 16
31 30 29 28 27 29 29 29 28 27 26 24 22 20 19 18 19 18 16 13 14 14 14 13 13 13 13 14 14 13 14 14 13 14 14 14 13 14 16 16 16 15 15 16 16 15 14 14 14 14 15 14 15 16
30 31 30 29 28 28 29 28 29 28 26 25 25 24 23 20 20 20 17 16 14 13 13 14 14 13 12 13 12 12 12 12 13 14 14 14 14 15 14 14 12 11 11 12 12 12 11 11 11 12 14 15 16 17
29 31 31 31 30 29 28 28 29 29 28 27 26 26 28 25 20 16 18 16 16 15 15 13 13 13 12 12 11 11 11 12 12 11 11 12 12 10 9 8 8 7 7 8 9 9 9 8 8 9 10 11 12 13
27 28 31 31 31 30 28 28 29 30 30 29 31 28 27 26 25 20 17 17 16 17 16 14 13 13 13 12 11 12 10 10 9 9 9 8 7 5 4 4 4 3 3 4 5 6 7 8 8 8 8 8 9 9
24 25 26 29 31 31 29 28 28 28 28 32 33 34 31 25 24 23 23 19 19 19 17 15 15 14 11 11 11 11 11 8 7 6 6 4 3 2 1 1 1 1 3 4 5 6 7 7 7 7 7 6 6 6
22 22 24 26 28 29 29 30 28 28 30 32 35 35 33 31 24 22 24 23 20 20 20 18 15 15 13 12 11 9 9 7 6 5 4 3 3 2 1 1 2 2 3 5 6 6 7 7 8 8 7 6 5 4
23 23 22 23 25 28 26 29 30 26 30 30 33 34 34 32 30 24 21 25 23 23 21 20 17 15 16 15 14 10 10 8 7 6 6 6 5 4 2 2 2 3 3 3 4 4 5 6 6 6 6 6 5 4
23 25 25 26 24 26 24 23 30 28 26 28 31 33 35 33 31 28 27 25 24 23 24 23 20 18 13 12 11 12 11 10 8 7 7 8 7 5 4 3 3 3 2 2 2 3 4 4 5 5 5 5 4 3
22 23 25 27 26 27 25 20 24 25 27 29 25 30 31 33 36 34 31 30 28 27 26 23 22 21 18 15 14 14 13 11 10 9 9 10 9 7 6 5 4 4 3 2 1 1 2 3 3 4 5 5 4 3
23 23 24 26 26 26 27 25 19 21 23 23 30 29 27 29 32 34 33 34 34 33 30 27 25 24 22 20 19 18 17 16 13 11 11 11 11 10 8 7 6 5 4 3 2 1 0 1 2 3 4 5 4 4
22 24 23 23 25 27 26 28 24 22 21 20 23 27 31 33 32 28 32 34 34 33 32 31 31 29 26 24 22 21 21 19 16 14 13 13 13 11 10 9 8 6 6 5 4 3 1 1 1 2 3 4 4 4
23 25 23 23 26 24 25 27 26 24 22 19 14 22 23 27 29 33 35 35 32 31 32 32 32 30 27 26 25 24 24 22 19 17 16 15 15 14 12 11 10 8 7 7 6 4 3 2 2 1 1 2 3 4
23 26 25 25 23 25 25 24 27 27 27 25 21 17 13 18 23 28 29 30 31 31 31 31 31 29 28 27 26 25 25 24 22 19 18 18 17 15 14 13 12 11 9 8 7 7 6 5 4 3 2 2 2 3
25 29 27 25 26 26 25 26 25 25 26 26 25 23 20 19 19 19 19 23 26 29 30 30 29 28 29 28 26 25 26 26 24 21 20 20 19 18 17 15 14 13 12 10 9 9 8 7 6 6 5 5 4 4
26 28 29 28 25 24 24 25 27 30 26 24 23 23 22 20 19 16 15 16 17 23 27 29 29 28 27 27 27 26 26 26 25 23 20 20 20 20 19 17 17 15 14 13 11 11 10 9 8 8 7 7 7 6
18 26 30 28 29 28 26 24 23 25 27 27 29 29 23 22 20 17 14 14 14 17 20 25 27 27 26 26 27 26 25 25 24 22 20 20 20 20 19 18 17 17 16 15 13 12 11 10 10 10 10 10 9 9
24 22 26 26 26 27 28 23 24 24 21 23 26 30 31 27 21 18 16 16 17 16 17 19 22 24 24 25 25 26 27 27 26 24 24 22 21 21 21 19 18 17 17 17 16 14 13 12 11 10 10 11 11 10
31 28 25 27 26 26 27 26 23 21 22 22 22 24 27 28 28 24 21 19 19 20 20 20 20 21 22 24 24 25 26 27 27 26 24 24 24 22 22 20 20 19 18 18 17 16 15 13 12 12 11 11 11 11
27 29 29 31 30 30 27 25 26 25 24 24 24 25 26 27 27 28 27 24 22 22 21 22 22 21 22 22 24 24 24 25 25 25 24 23 23 23 23 22 20 20 20 20 19 18 17 16 16 15 15 14 14 14
31 32 31 30 30 29 28 28 27 27 27 25 25 26 26 26 28 28 28 27 26 25 24 24 23 23 23 22 22 22 22 24 25 25 25 24 23 23 24 24 22 21 20 20 21 20 20 19 18 17 17 18 17 17
30 34 32 32 29 27 27 27 28 29 29 29 29 27 26 26 27 27 28 30 29 28 27 27 25 24 24 23 23 23 23 23 25 27 27 25 24 24 24 25 24 23 22 20 21 21 22 21 20 20 19 19 19 19
Wind_Direction
197 198 200 202 203 202 205 206 207 210 211 214 217 219 223 224 227 224 226 229 230 232 231 234 236 238 239 242 246 245 249 259 263 267 280 286 291 297 303 300 306 306 310 306 306 305 310 320 313 303 301 301 298 293
203 202 204 206 207 210 212 212 213 214 216 218 220 222 223 223 224 225 227 231 238 236 238 239 241 240 241 243 242 240 257 253 262 272 280 290 292 300 304 309 309 307 301 311 309 307 310 311 306 302 297 292 288 282
211 205 204 204 207 211 212 213 214 216 218 221 222 223 224 224 226 227 229 232 235 239 241 242 243 240 239 235 238 245 249 256 264 276 283 290 292 301 304 304 306 309 309 308 312 315 313 314 314 308 304 297 290 280
214 213 213 208 210 213 210 209 212 215 219 221 221 223 225 226 227 228 231 232 237 238 239 238 238 236 236 234 235 239 249 255 264 271 280 287 295 297 304 305 306 309 315 315 313 317 321 321 322 317 309 301 290 284
219 219 222 220 220 214 212 214 211 213 216 219 221 224 225 226 228 229 232 234 235 235 239 241 240 235 238 236 233 236 243 252 263 269 276 285 295 300 300 304 307 318 325 324 322 326 326 327 330 325 318 309 295 282
221 223 224 221 220 221 221 220 219 217 220 227 227 227 226 228 225 229 234 235 233 233 238 238 237 235 238 235 233 234 240 249 256 268 278 286 289 299 304 305 309 325 326 327 326 330 331 332 338 338 333 322 295 281
225 225 225 228 229 228 223 218 216 218 227 233 232 231 224 221 223 229 232 236 226 225 234 239 238 234 231 235 233 234 236 247 256 268 275 282 288 288 298 304 312 325 328 329 332 336 340 345 348 352 356 359 355 307
226 227 228 229 227 225 223 223 223 226 231 233 233 229 221 221 225 229 228 223 221 230 235 238 239 236 229 232 229 229 237 247 257 270 280 283 285 286 296 300 318 325 331 333 338 342 344 350 357 4 11 17 27 46
224 226 229 230 230 229 227 226 226 230 233 232 229 226 226 229 228 230 230 230 234 235 236 233 236 236 228 229 231 232 242 253 260 266 275 278 278 279 296 311 321 327 332 334 339 343 351 357 5 14 22 33 45 57
226 229 232 233 232 230 229 229 230 231 232 229 229 232 234 232 227 221 231 232 236 236 236 237 236 235 228 226 230 235 246 256 261 263 271 275 281 282 298 315 321 327 332 338 343 348 352 359 7 18 28 39 50 61
229 231 232 231 231 231 230 229 231 231 231 229 231 233 233 224 226 229 230 232 232 238 235 237 234 232 230 229 235 242 246 255 263 262 268 276 283 281 300 312 318 328 332 338 342 346 351 359 9 19 31 40 52 62
227 229 231 232 231 230 230 229 229 231 230 230 232 231 230 230 230 228 230 232 236 239 233 232 233 228 230 232 236 242 248 252 261 264 270 276 278 288 303 311 316 323 331 338 344 347 353 3 11 21 31 40 50 62
229 230 230 231 231 229 229 229 229 229 229 230 229 228 228 229 231 229 226 235 235 232 228 222 220 215 218 221 229 237 246 252 262 265 271 275 280 289 298 302 310 318 328 338 347 353 359 9 16 27 37 47 60 68
230 229 229 229 229 229 228 228 226 225 224 226 226 226 227 227 233 233 235 234 233 231 222 213 211 218 216 219 231 245 250 257 265 267 269 276 283 290 292 298 302 314 328 339 348 357 7 19 31 41 52 62 73 81
230 229 228 228 226 225 225 225 222 222 222 224 226 227 228 230 234 239 235 234 232 225 214 211 216 216 218 227 235 245 252 259 264 269 278 287 288 287 291 296 302 309 324 344 0 12 22 32 44 51 59 69 77 83
230 229 228 225 223 223 223 221 220 221 223 226 227 228 229 231 231 234 234 231 224 213 208 215 214 220 223 231 233 240 255 259 266 271 287 287 279 278 287 300 311 327 350 5 17 29 39 48 56 65 70 74 80 85
227 226 226 222 220 219 219 215 217 221 225 225 227 226 228 233 233 232 229 229 216 210 215 218 217 218 219 230 238 238 249 260 257 273 286 265 235 224 275 311 357 37 45 47 49 50 54 58 62 66 71 75 82 91
225 224 221 216 214 213 214 216 220 226 230 228 227 226 225 227 228 228 226 220 216 216 215 218 218 221 226 231 236 239 236 243 253 254 241 217 189 186 185 128 109 99 86 74 69 67 66 65 64 62 67 73 82 96
220 217 214 211 211 210 216 221 222 232 231 228 225 224 223 223 223 225 224 218 221 219 219 219 224 226 231 233 237 236 233 236 233 226 216 202 192 184 175 152 138 132 114 96 77 62 60 58 57 57 56 54 53 66
220 218 214 211 211 211 219 225 222 229 227 226 223 221 220 220 219 221 222 219 218 219 220 220 221 221 224 229 232 229 223 217 216 215 212 205 202 198 194 185 179 166 153 126 90 74 66 56 48 45 39 38 40 49
219 215 212 211 214 216 220 226 223 226 225 224 222 218 218 220 222 222 222 221 221 222 223 221 223 222 228 234 236 227 220 219 222 223 216 210 207 207 205 204 194 193 190 181 155 95 53 39 41 37 36 29 32 40
216 213 213 214 218 219 221 222 223 221 220 221 218 219 219 218 220 222 222 222 224 224 224 225 226 229 231 237 235 230 226 223 224 223 219 209 208 210 210 210 208 209 211 209 207 193 91 52 46 41 37 37 44 53
214 211 214 214 216 218 221 217 221 219 219 223 219 218 221 221 220 217 222 224 226 226 227 229 231 233 236 238 232 227 222 219 221 223 219 216 213 214 214 215 216 215 215 215 214 210 205 153 89 59 51 50 58 74
215 211 213 215 215 216 215 215 217 216 215 212 214 214 219 220 219 223 229 228 227 227 227 229 231 233 233 230 226 223 219 218 221 221 220 217 215 216 216 217 218 221 221 216 216 216 213 209 191 154 95 79 79 95
213 212 214 215 215 213 214 214 214 216 217 218 219 217 215 216 220 223 227 228 226 226 227 228 226 227 225 223 222 221 217 216 218 222 221 218 216 215 217 218 220 222 220 217 218 217 216 216 216 211 198 175 147 140
220 215 213 214 214 216 216 217 215 215 217 219 222 223 221 222 223 225 225 226 226 223 223 221 221 221 219 220 220 219 217 216 218 220 220 219 218 217 217 218 219 223 223 223 220 219 219 219 220 216 214 208 197 183
220 216 214 216 216 216 218 221 220 218 218 215 214 215 217 220 223 224 228 225 222 218 218 217 216 216 217 220 221 218 215 214 215 218 220 219 219 219 220 222 223 224 222 222 223 222 222 222 224 223 221 219 215 211
225 215 212 214 217 218 219 219 217 216 218 220 217 215 217 213 215 221 224 220 217 216 217 214 215 215 217 217 213 211 210 210 212 214 216 217 219 220 221 223 223 222 222 223 223 224 225 226 227 227 225 223 223 222
221 217 210 211 213 215 216 217 216 215 215 217 218 218 218 219 220 223 226 225 219 214 209 205 207 209 211 210 211 211 211 211 211 214 216 219 220 222 221 222 222 222 222 222 222 224 225 228 230 230 228 227 227 227
221 218 216 212 213 214 214 214 217 216 219 219 220 220 221 222 223 225 225 223 220 218 217 214 210 209 209 209 210 212 214 215 218 218 219 220 222 220 218 220 221 222 222 222 222 225 227 229 230 230 229 230 230 230
216 215 218 219 221 220 221 222 224 225 226 225 224 226 226 225 226 224 224 223 221 218 217 214 213 214 213 212 212 213 216 217 218 217 219 220 219 218 218 220 223 224 223 224 224 226 228 230 233 232 232 233 233 234
218 218 218 219 221 222 225 227 228 227 226 227 227 225 226 225 224 223 220 220 220 220 218 216 216 217 218 217 216 216 218 217 216 217 218 219 220 220 221 221 223 224 225 226 228 229 230 232 234 235 236 236 236 237
218 216 218 219 220 222 223 225 227 230 228 227 226 225 224 224 224 224 224 222 223 222 221 220 219 220 218 218 219 220 221 221 221 221 221 222 223 223 223 223 224 225 227 229 230 231 232 233 236 237 239 239 239 240